Lid_Strength_Index
13 14 15 15 15 15 15 15 15 15 15 14 14 15 15 15 15 15 15 14 14 14 14 14 14 14 14 14 13 13 14 13 14 13 12 12 12 12 12 11 11 11 11
14 15 15 15 15 16 16 16 16 16 15 15 14 15 15 15 15 15 14 14 14 15 15 15 16 14 14 14 14 14 14 14 14 15 14 14 14 13 13 13 12 12 12
15 16 17 17 17 17 17 16 16 16 16 15 14 15 15 15 15 14 14 14 15 15 15 15 15 14 14 14 14 14 14 14 14 14 15 14 14 14 14 14 14 14 13
15 16 16 16 16 17 16 16 16 16 15 15 14 14 14 15 14 14 14 15 15 15 14 14 15 14 14 14 14 14 14 14 14 14 15 15 14 14 15 17 17 15 16
15 16 16 16 16 16 16 15 15 15 15 14 14 14 14 14 14 14 14 14 14 15 14 14 14 14 13 13 14 14 15 15 15 15 16 16 16 16 17 17 18 17 17
15 15 15 15 15 15 15 15 15 15 15 15 14 14 14 13 12 12 13 14 14 15 15 15 15 16 15 14 13 14 14 15 16 16 16 17 17 17 17 18 19 19 20
14 15 15 15 15 15 15 15 15 15 15 15 15 14 14 13 12 13 13 14 15 15 16 15 15 16 15 15 15 15 15 14 15 16 18 18 18 17 17 18 18 19 20
14 15 15 15 15 15 15 15 16 15 15 15 15 14 14 13 12 14 14 15 16 16 16 16 17 17 15 15 16 16 16 17 16 16 17 17 17 17 17 17 19 20 20
15 15 15 15 15 15 15 15 15 15 15 15 14 14 14 14 13 14 15 15 16 16 16 16 17 17 15 15 17 18 18 17 16 16 16 16 16 17 17 20 23 24 25
15 15 15 15 15 15 15 16 15 15 15 14 14 14 15 16 14 14 15 15 16 16 16 16 16 16 15 16 17 19 19 18 19 19 20 19 19 19 18 19 21 24 24
15 15 16 15 15 15 15 16 15 15 15 15 15 15 16 16 15 14 15 16 16 16 17 17 17 16 16 17 17 19 19 18 21 22 23 22 21 20 20 20 20 21 23
16 17 16 16 16 16 16 16 16 16 16 16 17 17 16 17 16 16 16 16 16 17 17 17 17 17 17 18 19 18 18 21 23 24 25 24 23 23 22 21 21 20 20
18 19 18 17 16 16 16 16 16 16 17 17 17 18 18 17 17 17 17 16 17 17 16 17 18 19 19 21 20 20 21 23 25 26 26 24 23 23 22 22 21 21 21
19 19 18 18 17 17 16 16 17 17 17 17 17 18 18 18 18 18 17 17 16 17 18 21 21 21 22 21 23 23 23 24 25 25 25 24 24 24 24 23 24 23 24
19 19 18 18 18 18 17 17 17 16 16 18 18 18 19 20 18 18 17 17 17 17 23 24 25 24 25 25 25 25 24 24 26 25 26 26 26 25 25 23 24 24 26
20 19 19 19 18 18 18 18 15 16 15 15 15 17 17 17 16 16 16 15 15 17 28 28 27 26 27 26 26 26 26 26 25 26 26 26 26 26 26 25 24 26 26
20 20 20 19 19 19 19 20 21 18 17 16 16 16 17 17 16 16 16 15 17 22 33 31 30 28 27 27 28 28 28 26 25 26 26 26 26 26 27 27 26 26 27
20 20 19 19 19 19 20 20 20 21 22 23 19 20 19 18 17 17 16 19 28 28 34 34 33 34 33 31 29 29 28 28 28 27 27 28 31 29 30 29 28 29 29
21 21 20 20 20 21 21 21 22 23 24 27 28 25 25 22 20 19 17 28 31 35 37 38 36 34 33 32 31 31 31 30 28 31 31 32 32 35 32 30 29 29 29
22 21 22 22 23 23 23 24 25 26 28 29 30 31 34 32 34 35 36 38 39 35 35 35 34 34 34 34 34 34 34 32 31 31 31 31 32 33 31 31 31 30 30
23 23 24 26 26 28 28 28 28 30 30 31 32 32 25 33 33 33 36 37 35 34 32 33 32 34 34 34 35 34 34 30 30 31 31 33 33 34 32 31 31 31 30
25 26 29 30 31 31 33 32 33 34 34 35 35 36 22 34 36 35 34 33 32 32 32 33 32 32 30 32 31 31 31 30 30 30 31 32 34 33 32 32 32 31 31
29 31 32 33 34 34 36 39 39 39 38 38 39 36 39 37 35 35 33 32 34 33 33 34 32 30 29 29 28 28 29 29 28 30 32 34 33 32 33 32 32 32 31
30 30 31 34 34 33 34 37 38 37 39 39 39 37 35 34 35 33 32 32 34 32 32 31 30 29 28 29 29 29 28 28 28 29 32 31 31 31 31 32 32 31 31
32 32 32 31 33 33 37 39 38 39 38 37 35 36 34 34 33 32 32 32 31 30 29 28 28 28 29 29 28 29 29 25 26 29 30 31 31 31 31 31 31 30 31
32 32 32 34 36 39 38 37 36 36 35 34 34 33 32 32 31 31 30 31 30 28 28 26 27 28 28 28 29 28 27 24 26 27 28 29 29 30 30 31 32 31 30